TimeEDT,TemperatureF,Dew PointF,Humidity,Sea Level PressureIn,VisibilityMPH,Wind Direction,Wind SpeedMPH,Gust SpeedMPH,PrecipitationIn,Events,Conditions,WindDirDegrees,DateUTC
12:56 AM,32.0,27.1,82,29.95,4.0,WNW,3.5,-,0.00,Snow,Light Snow,300,2013-03-27 04:56:00
1:03 AM,33.8,28.4,81,29.91,3.0,WNW,3.5,-,0.00,Snow,Light Snow,290,2013-03-27 05:03:00
1:15 AM,32.0,28.4,87,29.91,10.0,Calm,Calm,-,0.00,Snow,Light Snow,0,2013-03-27 05:15:00
1:56 AM,29.1,27.1,92,29.94,10.0,Calm,Calm,-,0.00,,Overcast,0,2013-03-27 05:56:00
2:56 AM,28.0,26.1,92,29.93,10.0,Calm,Calm,-,N/A,,Overcast,0,2013-03-27 06:56:00
3:56 AM,29.1,24.1,81,29.92,10.0,West,5.8,-,N/A,,Partly Cloudy,280,2013-03-27 07:56:00
4:56 AM,30.0,26.1,85,29.92,10.0,WNW,4.6,-,N/A,,Mostly Cloudy,290,2013-03-27 08:56:00
5:56 AM,32.0,26.1,79,29.93,10.0,WNW,9.2,-,N/A,,Overcast,290,2013-03-27 09:56:00
6:15 AM,32.0,26.6,80,29.90,10.0,West,9.2,-,N/A,,Mostly Cloudy,280,2013-03-27 10:15:00
6:56 AM,31.1,25.2,79,29.94,10.0,West,8.1,-,N/A,,Mostly Cloudy,270,2013-03-27 10:56:00
7:56 AM,32.9,24.1,70,29.96,10.0,West,6.9,-,N/A,,Mostly Cloudy,270,2013-03-27 11:56:00
8:56 AM,34.9,25.2,68,29.98,10.0,WNW,9.2,-,N/A,,Scattered Clouds,300,2013-03-27 12:56:00
9:56 AM,36.9,26.1,65,29.98,10.0,WNW,11.5,-,N/A,,Scattered Clouds,290,2013-03-27 13:56:00
10:56 AM,39.9,26.1,58,29.99,10.0,NW,10.4,-,N/A,,Mostly Cloudy,310,2013-03-27 14:56:00
11:56 AM,41.9,27.1,56,29.98,10.0,NW,10.4,-,N/A,,Mostly Cloudy,320,2013-03-27 15:56:00
12:56 PM,43.9,25.2,48,29.97,10.0,NW,15.0,19.6,N/A,,Mostly Cloudy,320,2013-03-27 16:56:00
1:56 PM,43.9,27.1,52,29.96,10.0,North,9.2,-,0.00,,Mostly Cloudy,350,2013-03-27 17:56:00
2:56 PM,41.9,29.1,61,29.97,10.0,North,13.8,28.8,0.00,Rain,Light Rain Showers,360,2013-03-27 18:56:00
3:56 PM,39.9,30.0,68,29.98,10.0,North,11.5,20.7,0.00,,Overcast,350,2013-03-27 19:56:00
4:46 PM,37.4,32.0,81,29.96,8.0,North,18.4,25.3,0.00,Rain,Light Rain Showers,350,2013-03-27 20:46:00
4:56 PM,34.9,32.9,92,30.00,5.0,North,12.7,-,0.00,Snow,Light Snow Showers,360,2013-03-27 20:56:00
5:13 PM,35.6,32.0,87,29.98,3.0,NW,17.3,21.9,0.00,Snow,Light Snow,320,2013-03-27 21:13:00
5:20 PM,33.8,32.0,93,29.98,0.5,NW,13.8,-,0.00,Snow,Light Snow,320,2013-03-27 21:20:00
5:27 PM,33.8,30.2,87,29.98,0.5,NW,9.2,-,0.00,Fog-Snow,Light Snow,320,2013-03-27 21:27:00
5:56 PM,32.9,32.0,96,30.02,2.0,WNW,10.4,-,0.00,Snow,Light Snow,290,2013-03-27 21:56:00
6:56 PM,34.0,32.0,92,30.03,8.0,NW,5.8,-,0.00,,Mostly Cloudy,310,2013-03-27 22:56:00
7:56 PM,34.0,32.0,92,30.04,10.0,WNW,6.9,-,N/A,,Overcast,300,2013-03-27 23:56:00
8:56 PM,34.0,32.0,92,30.06,5.0,WNW,11.5,-,0.00,Rain,Light Rain,300,2013-03-28 00:56:00
9:56 PM,32.9,32.0,96,30.06,4.0,West,6.9,-,0.00,Snow,Light Snow,280,2013-03-28 01:56:00
10:25 PM,33.8,32.0,93,30.02,2.0,West,5.8,-,0.01,Snow,Light Snow,280,2013-03-28 02:25:00
10:39 PM,33.8,32.0,93,30.02,3.0,WNW,6.9,-,0.01,Snow,Light Snow,300,2013-03-28 02:39:00
10:42 PM,33.8,32.0,93,30.02,2.5,WNW,6.9,-,0.01,Snow,Light Snow,300,2013-03-28 02:42:00
10:56 PM,32.0,32.0,100,30.05,2.5,NW,5.8,-,0.01,Snow,Light Snow,310,2013-03-28 02:56:00
11:07 PM,33.8,32.0,93,30.02,1.8,NW,4.6,-,0.01,Snow,Light Snow,320,2013-03-28 03:07:00
11:21 PM,32.0,32.0,100,30.01,2.5,NW,5.8,-,0.01,Snow,Light Snow,310,2013-03-28 03:21:00
11:36 PM,32.0,32.0,100,30.01,3.0,NW,5.8,-,0.01,Snow,Light Snow,320,2013-03-28 03:36:00
11:56 PM,32.0,32.0,100,30.04,5.0,NW,8.1,-,0.01,,Overcast,310,2013-03-28 03:56:00